Location: La Chapelle
(48.3135°N, 1.3085°W)
Time: 03:45:53
(UTC+00:00)

USA 186 - Pass Details

Date: 03 March 2021
Orbit: 261 x 429 km, 96.9° (Epoch: 15 April)

Event Time Altitude Azimuth Distance (km) Brightness Sun altitude
Exits shadow 19:59:54 22° 315° (NW) 718 3.6 -21.8°
Drops below altitude 10° 20:01:05 10° 332° (NNW) 1,171 4.6 -22.0°
Sets 20:03:05 0° 341° (NNW) 2,034 5.7 -22.3°
